THORAD AGENA D DEB

Satellite information

Favourite Embed

Satellite Type and Status

DEBRISIN ORBIT

Key statistics

Satellite THORAD AGENA D DEB at a glance.

Uptime

20121

Days in orbit

Revolutions

≈ 14.0

Per day

Orbit

SSO

Sun Synchronous Orbit

Inclination

100.0

Latest

Satellite identification and parameters

Extended collection of information and parameters for THORAD AGENA D DEB.

Object identification

Identified? True

Debris? True

Object name: THORAD AGENA D DEB

International designator: 1970-025HT

Object number (NORAD): 4997

Object ID (CCSDS): 4997

Country: UNITED STATES OF AMERICA (US)

Current information (Y/N): Y

RCS size: SMALL

Orbital parameters

Period: 102.88 minutes

Inclination: 99.9582 deg

SMA: 7273.022 km

Apoapsis: 927.58 km

Periapsis: 862.194 km

RAAN: 356.0516 deg

Eccentricy: 0.0044951

Argument of periapsis: 159.0222 deg

Mean anomaly: 201.2796 deg

Mean motion: 13.99685321 rev/day

Mean motion (dot): 0.00001156 rev/day2

B* drag term: 0.00081802 1/REarth

Two-line elements (TLE)

Creation date: May 10, 2025, 2:32 a.m.

Reference frame: TEME

Reference center: EARTH

Epoch: May 9, 2025, 8:40 p.m. UTC

TLE line 0: 0 THORAD AGENA D DEB

TLE line 1: 1 04997U 70025HT 25129.86170826 .00001156 00000-0 81802-3 0 9995

TLE line 2: 2 04997 99.9582 356.0516 0044951 159.0222 201.2796 13.99685321778076

Live tracking on map

Real-time ground track for satellite THORAD AGENA D DEB.

In-orbit conjunctions

A list of the most updated potential collisions computed for object THORAD AGENA D DEB.

Target Orbit TCA Probability of collision Miss distance Type
COSMOS 249 DEB LEO 2025-04-25 02:06:28 0.0001115764 153.0 (m) DEBRIS
FENGYUN 1C DEB SSO 2025-04-16 08:30:46 0.0001274831 79.0 (m) DEBRIS
SL-16 DEB LEO 2025-01-29 18:39:18 0.0003628004 56.0 (m) DEBRIS
SL-3 DEB LEO 2025-01-10 08:04:25 0.0001426071 187.0 (m) DEBRIS
THORAD AGENA D DEB SSO 2024-10-01 19:29:22 0.0003069453 65.0 (m) DEBRIS

Associated space launch

Meteorological research and development satellite

THORAD AGENA D DEB was lifted into orbit during the mission ‘Thorad SLV-2G Agena D | Nimbus 4’, on board a Thorad SLV-2G Agena D space rocket.

The launch took place on April 8, 1970, 8:17 a.m. from Space Launch Complex 2E.

For more information about the launch, click the button.

Launch to space Thorad SLV-2G Agena D | Nimbus 4
Thorad SLV-2G Agena D | Nimbus 4

Agency: N/A

Status: Launch Successful

Launch date: April 8, 1970, 8:17 a.m. UTC

Rocket: Thorad SLV-2G Agena D

Launch pad: Space Launch Complex 2E

Location: Vandenberg SFB, CA, USA

...

Latest news about this satellite

There are no fresh news available about this satellite. Check back as we update our databases every day.


Newsletter sign-up

Weekly statistics, charts and insights to help you stay on top of the space industry.